Location: Cazarilh
(42.9578°N, 0.5819°E)
Time: 14:14:38
(UTC+00:00)

Feng Yun 1-1 Rocket - Pass Details

Date: 11 December 2019
Orbit: 830 x 933 km, 99.2° (Epoch: 19 January)

Event Time Altitude Azimuth Distance (km) Brightness Sun altitude
Rises 06:42:56 0° 12° (NNE) 3,445 7.2 -6.5°
Reaches altitude 10° 06:45:17 10° 10° (N) 2,519 6.5 -6.1°
Maximum altitude 06:50:51 70° 288° (WNW) 939 4.3 -5.2°
Drops below altitude 10° 06:56:33 10° 206° (SSW) 2,571 6.8 -4.3°
Sets 06:58:58 0° 204° (SSW) 3,522 7.5 -3.9°
